Location: *
(57.8420°S, 159.8600°W)
Time: 04:15:02
(UTC+00:00)

Cosmos 2322 Rocket - Pass Details

Date: 18 May 2021
Orbit: 831 x 852 km, 71.0° (Epoch: 23 June)

Event Time Altitude Azimuth Distance (km) Brightness Sun altitude
Rises 04:27:56 0° 286° (WNW) 3,408 7.3 -15.5°
Reaches altitude 10° 04:30:37 10° 276° (W) 2,475 6.0 -15.8°
Maximum altitude 04:35:46 34° 211° (SSW) 1,365 3.5 -16.5°
Enters shadow 04:40:16 13° 150° (SSE) 2,263 4.1 -17.1°
